Retour au catalogue

STARLINK-32814

ActifCommunicationsVLEO
NORAD 62871·PAYLOAD·🇺🇸 United States

Lancé Feb 1, 2025 depuis Vandenberg Space Force Base

Loading…

Prochains Passages (prochaines 24 heures)

TLE

FraisSource: CelesTrak SupGP

Époque: Sep 14, 2026, 21:21 UTC

1 62871C 25022T   26257.89006944 -.00013956  00000+0 -41258-3 0  2572
2 62871  53.1582 327.6063 0001111  82.3891 241.4300 15.34379598    11

Suivez STARLINK-32814 en temps réel avec AllMySat

Download on the App Store